Time,TemperatureF,DewpointF,PressureIn,WindDirection,WindDirectionDegrees,WindSpeedMPH,WindSpeedGustMPH,Humidity,HourlyPrecipIn,Conditions,Clouds,dailyrainin,SolarRadiationWatts/m^2,SoftwareType,DateUTC
2013-07-31 00:02:00,55.0,54.0,-100.00,SSW,195,0.0,0.0,96,0.00,,,0.00,0.000000,,2013-07-31 04:02:00,
2013-07-31 00:32:00,54.0,53.0,-100.00,East,101,0.0,0.0,97,0.00,,,0.00,0.000000,,2013-07-31 04:32:00,
2013-07-31 00:42:00,54.0,53.0,-100.00,East,101,0.0,0.0,97,0.00,,,0.00,0.000000,,2013-07-31 04:42:00,
2013-07-31 00:52:00,54.0,53.0,-100.00,East,101,0.0,0.0,97,0.00,,,0.00,0.000000,,2013-07-31 04:52:00,
2013-07-31 01:02:00,54.0,53.0,-100.00,East,101,0.0,0.0,97,0.00,,,0.00,0.000000,,2013-07-31 05:02:00,
2013-07-31 01:32:00,53.0,52.0,-100.00,NW,314,0.0,0.0,98,0.00,,,0.00,0.000000,,2013-07-31 05:32:00,
2013-07-31 01:43:00,53.0,52.0,-100.00,NW,314,0.0,0.0,98,0.00,,,0.00,0.000000,,2013-07-31 05:43:00,
2013-07-31 01:52:00,53.0,52.0,-100.00,NW,314,0.0,0.0,98,0.00,,,0.00,0.000000,,2013-07-31 05:52:00,
2013-07-31 02:02:00,53.0,52.0,-100.00,NW,314,0.0,0.0,98,0.00,,,0.00,0.000000,,2013-07-31 06:02:00,
2013-07-31 02:32:00,52.0,51.0,-100.00,SSW,193,0.0,0.0,98,0.00,,,0.00,0.000000,,2013-07-31 06:32:00,
2013-07-31 02:43:00,52.0,51.0,-100.00,SSW,193,0.0,0.0,98,0.00,,,0.00,0.000000,,2013-07-31 06:43:00,
2013-07-31 02:53:00,52.0,51.0,-100.00,SSW,193,0.0,0.0,98,0.00,,,0.00,0.000000,,2013-07-31 06:53:00,
2013-07-31 03:02:00,52.0,51.0,-100.00,SSW,193,0.0,0.0,98,0.00,,,0.00,0.000000,,2013-07-31 07:02:00,
2013-07-31 03:32:00,52.0,51.0,-100.00,SE,130,0.0,0.0,98,0.00,,,0.00,0.000000,,2013-07-31 07:32:00,
2013-07-31 03:43:00,52.0,51.0,-100.00,SE,130,0.0,0.0,98,0.00,,,0.00,0.000000,,2013-07-31 07:43:00,
2013-07-31 03:52:00,52.0,51.0,-100.00,SE,130,0.0,0.0,98,0.00,,,0.00,0.000000,,2013-07-31 07:52:00,
2013-07-31 04:02:00,52.0,51.0,-100.00,SE,130,0.0,0.0,98,0.00,,,0.00,0.000000,,2013-07-31 08:02:00,
2013-07-31 04:33:00,51.0,50.0,-100.00,SSW,205,0.0,0.0,98,0.00,,,0.00,0.000000,,2013-07-31 08:33:00,
2013-07-31 04:42:00,51.0,50.0,-100.00,SSW,205,0.0,0.0,98,0.00,,,0.00,0.000000,,2013-07-31 08:42:00,
2013-07-31 04:53:00,51.0,50.0,-100.00,SSW,205,0.0,0.0,98,0.00,,,0.00,0.000000,,2013-07-31 08:53:00,
2013-07-31 05:02:00,51.0,50.0,-100.00,SSW,205,0.0,0.0,98,0.00,,,0.00,0.000000,,2013-07-31 09:02:00,
2013-07-31 05:44:00,51.0,51.0,-100.00,SSW,202,0.0,0.0,99,0.00,,,-99.99,0.000000,,2013-07-31 09:44:00,
2013-07-31 05:52:00,51.0,51.0,-100.00,SSW,202,0.0,0.0,99,0.00,,,-99.99,0.000000,,2013-07-31 09:52:00,
2013-07-31 06:02:00,51.0,51.0,-100.00,SSW,202,0.0,0.0,99,0.00,,,-99.99,0.000000,,2013-07-31 10:02:00,
2013-07-31 06:44:00,50.0,50.0,-100.00,South,188,0.0,0.0,99,0.00,,,0.00,0.000000,,2013-07-31 10:44:00,
2013-07-31 06:52:00,50.0,50.0,-100.00,South,188,0.0,0.0,99,0.00,,,0.00,0.000000,,2013-07-31 10:52:00,
2013-07-31 07:03:00,50.0,50.0,-100.00,South,188,0.0,0.0,99,0.00,,,0.00,0.000000,,2013-07-31 11:03:00,
2013-07-31 07:43:00,51.0,51.0,-100.00,SW,219,0.0,0.0,99,0.00,,,0.00,18.000000,,2013-07-31 11:43:00,
2013-07-31 07:53:00,51.0,51.0,-100.00,SW,219,0.0,0.0,99,0.00,,,0.00,18.000000,,2013-07-31 11:53:00,
2013-07-31 08:03:00,51.0,51.0,-100.00,SW,219,0.0,0.0,99,0.00,,,0.00,18.000000,,2013-07-31 12:03:00,
2013-07-31 08:43:00,55.0,55.0,-100.00,South,174,0.0,0.0,99,0.00,,,0.00,81.000000,,2013-07-31 12:43:00,
2013-07-31 08:53:00,55.0,55.0,-100.00,South,174,0.0,0.0,99,0.00,,,0.00,81.000000,,2013-07-31 12:53:00,
2013-07-31 09:02:00,55.0,55.0,-100.00,South,174,0.0,0.0,99,0.00,,,0.00,81.000000,,2013-07-31 13:02:00,
2013-07-31 09:43:00,60.0,59.0,-100.00,WSW,243,0.0,2.0,95,0.00,,,0.00,201.000000,,2013-07-31 13:43:00,
2013-07-31 09:53:00,60.0,59.0,-100.00,WSW,243,0.0,2.0,95,0.00,,,0.00,201.000000,,2013-07-31 13:53:00,
2013-07-31 10:02:00,60.0,59.0,-100.00,WSW,243,0.0,2.0,95,0.00,,,0.00,201.000000,,2013-07-31 14:02:00,
2013-07-31 10:34:00,67.0,60.0,-100.00,WSW,250,0.0,2.0,77,0.00,,,-99.99,406.000000,,2013-07-31 14:34:00,
2013-07-31 10:43:00,67.0,60.0,-100.00,WSW,250,0.0,2.0,77,0.00,,,-99.99,406.000000,,2013-07-31 14:43:00,
2013-07-31 10:53:00,67.0,60.0,-100.00,WSW,250,0.0,2.0,77,0.00,,,-99.99,406.000000,,2013-07-31 14:53:00,
2013-07-31 11:02:00,67.0,60.0,-100.00,WSW,250,0.0,2.0,77,0.00,,,-99.99,406.000000,,2013-07-31 15:02:00,
2013-07-31 11:44:00,72.0,61.0,-100.00,SSW,192,2.0,5.0,68,0.00,,,0.00,537.000000,,2013-07-31 15:44:00,
2013-07-31 11:53:00,72.0,61.0,-100.00,SSW,192,2.0,5.0,68,0.00,,,0.00,537.000000,,2013-07-31 15:53:00,
2013-07-31 12:02:00,72.0,61.0,-100.00,SSW,192,2.0,5.0,68,0.00,,,0.00,537.000000,,2013-07-31 16:02:00,
2013-07-31 12:33:00,76.0,61.0,-100.00,SSE,168,3.0,9.0,59,0.00,,,0.00,834.000000,,2013-07-31 16:33:00,
2013-07-31 12:44:00,76.0,61.0,-100.00,SSE,168,3.0,9.0,59,0.00,,,0.00,834.000000,,2013-07-31 16:44:00,
2013-07-31 12:53:00,76.0,61.0,-100.00,SSE,168,3.0,9.0,59,0.00,,,0.00,834.000000,,2013-07-31 16:53:00,
2013-07-31 13:03:00,76.0,61.0,-100.00,SSE,168,3.0,9.0,59,0.00,,,0.00,834.000000,,2013-07-31 17:03:00,
2013-07-31 13:33:00,77.0,60.0,-100.00,South,186,3.0,7.0,56,0.00,,,0.00,739.000000,,2013-07-31 17:33:00,
2013-07-31 13:43:00,77.0,60.0,-100.00,South,186,3.0,7.0,56,0.00,,,0.00,739.000000,,2013-07-31 17:43:00,
2013-07-31 13:53:00,77.0,60.0,-100.00,South,186,3.0,7.0,56,0.00,,,0.00,739.000000,,2013-07-31 17:53:00,
2013-07-31 14:02:00,77.0,60.0,-100.00,South,186,3.0,7.0,56,0.00,,,0.00,739.000000,,2013-07-31 18:02:00,
2013-07-31 14:33:00,76.0,59.0,-100.00,South,190,3.0,6.0,55,0.00,,,0.00,747.000000,,2013-07-31 18:33:00,
2013-07-31 14:43:00,76.0,59.0,-100.00,South,190,3.0,6.0,55,0.00,,,0.00,747.000000,,2013-07-31 18:43:00,
2013-07-31 14:52:00,76.0,59.0,-100.00,South,190,3.0,6.0,55,0.00,,,0.00,747.000000,,2013-07-31 18:52:00,
2013-07-31 15:03:00,76.0,59.0,-100.00,South,190,3.0,6.0,55,0.00,,,0.00,747.000000,,2013-07-31 19:03:00,
2013-07-31 15:43:00,78.0,60.0,-100.00,South,183,3.0,9.0,54,0.00,,,0.00,693.000000,,2013-07-31 19:43:00,
2013-07-31 15:53:00,78.0,60.0,-100.00,South,183,3.0,9.0,54,0.00,,,0.00,693.000000,,2013-07-31 19:53:00,
2013-07-31 16:03:00,78.0,60.0,-100.00,South,183,3.0,9.0,54,0.00,,,0.00,693.000000,,2013-07-31 20:03:00,
2013-07-31 16:43:00,78.0,59.0,-100.00,South,182,2.0,8.0,53,0.00,,,0.00,604.000000,,2013-07-31 20:43:00,
2013-07-31 16:53:00,78.0,59.0,-100.00,South,182,2.0,8.0,53,0.00,,,0.00,604.000000,,2013-07-31 20:53:00,
2013-07-31 17:03:00,78.0,59.0,-100.00,South,182,2.0,8.0,53,0.00,,,0.00,604.000000,,2013-07-31 21:03:00,
2013-07-31 17:32:00,77.0,60.0,-100.00,SSW,200,3.0,6.0,56,0.00,,,0.00,396.000000,,2013-07-31 21:32:00,
2013-07-31 17:43:00,77.0,60.0,-100.00,SSW,200,3.0,6.0,56,0.00,,,0.00,396.000000,,2013-07-31 21:43:00,
2013-07-31 17:53:00,77.0,60.0,-100.00,SSW,200,3.0,6.0,56,0.00,,,0.00,396.000000,,2013-07-31 21:53:00,
2013-07-31 18:02:00,77.0,60.0,-100.00,SSW,200,3.0,6.0,56,0.00,,,0.00,396.000000,,2013-07-31 22:02:00,
2013-07-31 18:33:00,78.0,60.0,-100.00,South,185,4.0,8.0,54,0.00,,,0.00,559.000000,,2013-07-31 22:33:00,
2013-07-31 18:43:00,78.0,60.0,-100.00,South,185,4.0,8.0,54,0.00,,,0.00,559.000000,,2013-07-31 22:43:00,
2013-07-31 18:53:00,78.0,60.0,-100.00,South,185,4.0,8.0,54,0.00,,,0.00,559.000000,,2013-07-31 22:53:00,
2013-07-31 19:02:00,78.0,60.0,-100.00,South,185,4.0,8.0,54,0.00,,,0.00,559.000000,,2013-07-31 23:02:00,
2013-07-31 19:32:00,76.0,61.0,-100.00,South,179,3.0,9.0,60,0.00,,,0.00,341.000000,,2013-07-31 23:32:00,
2013-07-31 19:43:00,76.0,61.0,-100.00,South,179,3.0,9.0,60,0.00,,,0.00,341.000000,,2013-07-31 23:43:00,
2013-07-31 19:53:00,76.0,61.0,-100.00,South,179,3.0,9.0,60,0.00,,,0.00,341.000000,,2013-07-31 23:53:00,
2013-07-31 20:03:00,76.0,61.0,-100.00,South,179,3.0,9.0,60,0.00,,,0.00,341.000000,,2013-08-01 00:03:00,
2013-07-31 20:32:00,68.0,60.0,-100.00,ESE,103,1.0,6.0,75,0.00,,,0.00,93.000000,,2013-08-01 00:32:00,
2013-07-31 20:43:00,68.0,60.0,-100.00,ESE,103,1.0,6.0,75,0.00,,,0.00,93.000000,,2013-08-01 00:43:00,
2013-07-31 20:52:00,68.0,60.0,-100.00,ESE,103,1.0,6.0,75,0.00,,,0.00,93.000000,,2013-08-01 00:52:00,
2013-07-31 21:03:00,68.0,60.0,-100.00,ESE,103,1.0,6.0,75,0.00,,,0.00,93.000000,,2013-08-01 01:03:00,
2013-07-31 21:33:00,65.0,59.0,-100.00,NE,43,1.0,2.0,81,0.00,,,0.00,3.000000,,2013-08-01 01:33:00,
2013-07-31 21:43:00,65.0,59.0,-100.00,NE,43,1.0,2.0,81,0.00,,,0.00,3.000000,,2013-08-01 01:43:00,
2013-07-31 21:53:00,65.0,59.0,-100.00,NE,43,1.0,2.0,81,0.00,,,0.00,3.000000,,2013-08-01 01:53:00,
2013-07-31 22:02:00,65.0,59.0,-100.00,NE,43,1.0,2.0,81,0.00,,,0.00,3.000000,,2013-08-01 02:02:00,
2013-07-31 22:43:00,63.0,60.0,-100.00,NW,307,0.0,2.0,89,0.00,,,0.00,0.000000,,2013-08-01 02:43:00,
2013-07-31 22:53:00,63.0,60.0,-100.00,NW,307,0.0,2.0,89,0.00,,,0.00,0.000000,,2013-08-01 02:53:00,
2013-07-31 23:02:00,63.0,60.0,-100.00,NW,307,0.0,2.0,89,0.00,,,0.00,0.000000,,2013-08-01 03:02:00,
2013-07-31 23:32:00,63.0,60.0,-100.00,ENE,74,0.0,3.0,91,0.00,,,0.00,0.000000,,2013-08-01 03:32:00,
2013-07-31 23:43:00,63.0,60.0,-100.00,ENE,74,0.0,3.0,91,0.00,,,0.00,0.000000,,2013-08-01 03:43:00,
2013-07-31 23:53:00,63.0,60.0,-100.00,ENE,74,0.0,3.0,91,0.00,,,0.00,0.000000,,2013-08-01 03:53:00,